Location: Newark
(41.0400°S, 62.7845°W)
Time: 06:16:30
(UTC+00:00)

Courier 1B Rocket - Pass Details

Date: 30 November 2021
Orbit: 920 x 1202 km, 28.2° (Epoch: 24 January)

Event Time Altitude Azimuth Distance (km) Brightness Sun altitude
Rises 20:09:17 0° 281° (W) 4,095 9.3 34.7°
Reaches altitude 10° 20:12:52 10° 295° (WNW) 3,107 8.7 34.0°
Maximum altitude 20:18:31 22° 342° (NNW) 2,262 7.3 32.9°
Drops below altitude 10° 20:23:57 10° 30° (NNE) 2,976 7.3 31.9°
Sets 20:27:18 0° 44° (NE) 3,881 7.8 31.3°
